Deming, NM

6:54 PM MDT on March 22, 2017 (GMT -0600)
Deming Municipal

Weather History for KDMN - June, 2013

Change the Weather History Date:

Saturday, June 15, 2013

  Actual Average Record
Temperature  
Mean Temperature 84 °F 78 °F  
Max Temperature 100 °F 96 °F 105 °F (1948)
Min Temperature 68 °F 59 °F 45 °F (1991)
Cooling Degree Days 18    
Growing Degree Days 34 (Base 50)    
Moisture  
Dew Point 43 °F    
Average Humidity 32    
Maximum Humidity 53    
Minimum Humidity 10    
Precipitation  
Precipitation 0.00 in 0.02 in 0.17 in (1966)
Month to date precipitation T 0.12  
Year to date precipitation 0.51 2.53  
Sea Level Pressure  
Sea Level Pressure 29.80 in    
Wind  
Wind Speed 9 mph (West)    
Max Wind Speed 16 mph    
Max Gust Speed 21 mph    
Visibility 9 miles    
Events      
T = Trace of Precipitation, MM = Missing Value Source: NWS Daily Summary

Daily Weather History Graph

Daily Weather History Graph

Search for Another Location

Airport or City:

Trip Planner

Search our weather history database for the weather conditions in past years. The results will help you decide how hot, cold, wet, or windy it might be!

Date:

Astronomy

Jun. 15, 2013 Rise Set
Actual Time 6:03 AM MDT 8:19 PM MDT
Civil Twilight 5:35 AM MDT 8:47 PM MDT
Nautical Twilight 5:00 AM MDT 9:22 PM MDT
Astronomical Twilight 4:23 AM MDT 9:59 PM MDT
Moon 12:21 PM MDT (6/15) 12:14 AM MDT (6/15)
Length of Visible Light 15h 12m
Length of Day
14h 15m
Waxing Crescent, 40% of the Moon is Illuminated
Jun 15
Waxing Crescent
Jun 16
First Quarter
Jun 23
Full
Jun 29
Last Quarter
Jul 8
New

Hourly Weather History & Observations

Time (MDT) Temp. Dew Point Humidity Pressure Visibility Wind Dir Wind Speed Gust Speed Precip Events Conditions
12:53 AM 75.0 °F 50.0 °F 41% 29.76 in 10.0 mi ENE 10.4 mph - N/A   Clear
1:53 AM 78.1 °F 48.9 °F 36% 29.74 in 10.0 mi ESE 8.1 mph - N/A   Clear
2:53 AM 73.0 °F 50.0 °F 44% 29.75 in 10.0 mi East 3.5 mph - N/A   Clear
3:53 AM 72.0 °F 48.0 °F 43% 29.75 in 10.0 mi Calm Calm - N/A   Clear
4:53 AM 70.0 °F 51.1 °F 51% 29.77 in 10.0 mi Calm Calm - N/A   Clear
5:53 AM 69.1 °F 51.1 °F 53% 29.79 in 10.0 mi NNW 4.6 mph - N/A   Clear
6:53 AM 70.0 °F 51.1 °F 51% 29.81 in 10.0 mi North 4.6 mph - N/A   Clear
7:53 AM 73.9 °F 51.1 °F 45% 29.81 in 10.0 mi Calm Calm - N/A   Clear
8:53 AM 79.0 °F 51.1 °F 38% 29.83 in 10.0 mi Variable 3.5 mph - N/A   Clear
9:53 AM 84.0 °F 48.0 °F 28% 29.82 in 10.0 mi Variable 6.9 mph - N/A   Clear
10:53 AM 89.1 °F 45.0 °F 22% 29.79 in 10.0 mi West 8.1 mph 16.1 mph N/A   Clear
11:53 AM 91.9 °F 43.0 °F 18% 29.79 in 10.0 mi West 9.2 mph - N/A   Clear
12:53 PM 95.0 °F 39.0 °F 14% 29.77 in 10.0 mi Variable 5.8 mph - N/A   Clear
1:53 PM 98.1 °F 37.9 °F 12% 29.73 in 10.0 mi SSE 5.8 mph 18.4 mph N/A   Clear
2:53 PM 98.1 °F 34.0 °F 11% 29.72 in 10.0 mi West 9.2 mph - N/A   Clear
3:53 PM 98.1 °F 35.1 °F 11% 29.70 in 10.0 mi West 9.2 mph 17.3 mph N/A   Clear
4:53 PM 98.1 °F 35.1 °F 11% 29.68 in 10.0 mi SW 10.4 mph 16.1 mph N/A   Clear
5:53 PM 96.1 °F 34.0 °F 11% 29.69 in 10.0 mi SW 10.4 mph - N/A   Clear
6:53 PM 91.9 °F 39.0 °F 16% 29.71 in 10.0 mi West 21.9 mph 28.8 mph N/A   Clear
7:19 PM 89.6 °F 39.2 °F 17% 29.97 in 4.0 mi West 20.7 mph 28.8 mph N/A   Haze
7:50 PM 87.8 °F 39.2 °F 18% 29.98 in 1.5 mi WNW 27.6 mph 38.0 mph N/A   Haze
7:53 PM 87.1 °F 41.0 °F 20% 29.74 in 1.0 mi WNW 19.6 mph 38.0 mph N/A   Haze
8:01 PM 86.0 °F 41.0 °F 20% 29.99 in 1.8 mi WNW 19.6 mph 33.4 mph N/A   Haze
8:04 PM 86.0 °F 41.0 °F 20% 29.99 in 3.0 mi WNW 19.6 mph 33.4 mph N/A   Haze
8:21 PM 87.8 °F 39.2 °F 18% 29.99 in 10.0 mi WNW 15.0 mph 25.3 mph N/A   Partly Cloudy
8:53 PM 86.0 °F 39.0 °F 19% 29.74 in 10.0 mi West 17.3 mph 24.2 mph N/A   Clear
9:53 PM 86.0 °F 39.9 °F 20% 29.77 in 10.0 mi West 12.7 mph - N/A   Clear
10:53 PM 82.0 °F 42.1 °F 24% 29.81 in 10.0 mi WSW 17.3 mph 24.2 mph N/A   Clear
11:53 PM 80.1 °F 45.0 °F 29% 29.80 in 10.0 mi West 11.5 mph - N/A   Clear